Simultaneous Nadir Overpasses (SNOs) Predictions

Prediction of SNOs between METOP-B and TERRA Satellite Orbit:

Table of predicted SNOs for the next 14.0 days since TLE Epoch: 7/28/2015
Index Date (METOP-B) Time (METOP-B) Lat,Lon (METOP-B) SZA (METOP-B ) Date (TERRA) Time (TERRA) Lat,Lon (TERRA) SZA (TERRA ) Distance(km) Time Diff (sec)
1 07/30/2015 06:59:35 81.30, 122.11 65.43 07/30/2015 07:00:32 81.30, 122.17 65.46 1.11 57
2 07/30/2015 07:50:14 -81.32, -69.79 114.47 07/30/2015 07:49:58 -81.32, -69.88 114.49 1.66 16
3 08/02/2015 02:33:56 81.31,-171.25 66.15 08/02/2015 02:34:46 81.31,-171.18 66.19 1.24 50
4 08/02/2015 03:24:36 -81.31, -3.50 113.79 08/02/2015 03:24:13 -81.31, -3.58 113.82 1.50 23
5 08/04/2015 22:08:17 81.31,-104.63 66.91 08/04/2015 22:09:00 81.32,-104.59 66.94 1.04 43
6 08/04/2015 22:58:57 -81.32, 63.16 113.03 08/04/2015 22:58:27 -81.32, 63.03 113.05 2.12 30
7 08/07/2015 17:42:38 81.31, -38.43 67.66 08/07/2015 17:43:14 81.30, -38.46 67.67 0.90 36
8 08/07/2015 18:33:18 -81.31, 129.40 112.27 08/07/2015 18:32:40 -81.32, 129.57 112.26 3.00 38
9 08/10/2015 13:16:59 81.31, 28.14 68.49 08/10/2015 13:17:28 81.30, 27.98 68.48 2.96 29




NCC Satellite Simultaneous Nadir Overpasses (SNOs) Prediction Service
